ORBCOMM FM07 [-]

Last updated on Thu Dec 28 2023 00:02:54 GMT+0000 (Coordinated Universal Time)

1 25119U 97084H 23361.54884140 .00002797 00000+0 89069-3 0 9994 2 25119 45.0152 61.4751 0002079 346.8898 13.1897 14.41833283363812
UTC large
Height (km)
Speed (km/s)
/
Latitude / Longitude
Inclination (degrees)
Orbital Period (minutes)
Azimuth
Elevation
Range (km)
Doppler Factor

Next 0 passes for location: London (51.5072 / 0.1276)

Sorry there are no passes over London.